Renfrew, PA

4:37 AM EDT on September 29, 2016 (GMT -0400)
Butler County-Scholter

Weather History for KBTP - January, 2014

Change the Weather History Date:

Monday, January 27, 2014

  Actual Average Record
Temperature  
Mean Temperature 20 °F -  
Max Temperature 39 °F 32 °F 61 °F (1974)
Min Temperature 0 °F 18 °F -4 °F (2003)
Degree Days  
Heating Degree Days 46    
Moisture  
Dew Point 5 °F    
Average Humidity 61    
Maximum Humidity 86    
Minimum Humidity 48    
Precipitation  
Precipitation 0.00 in - - ()
Sea Level Pressure  
Sea Level Pressure 29.88 in    
Wind  
Wind Speed 12 mph (WSW)    
Max Wind Speed 24 mph    
Max Gust Speed 41 mph    
Visibility 8 miles    
Events      
Averages and records for this station are not official NWS values.
T = Trace of Precipitation, MM = Missing Value Source: NWS Daily Summary

Daily Weather History Graph

Daily Weather History Graph

Search for Another Location

Airport or City:

Trip Planner

Search our weather history database for the weather conditions in past years. The results will help you decide how hot, cold, wet, or windy it might be!

Date:

Astronomy

Jan. 27, 2014 Rise Set
Actual Time 7:34 AM EST 5:31 PM EST
Civil Twilight 7:05 AM EST 6:00 PM EST
Nautical Twilight 6:32 AM EST 6:33 PM EST
Astronomical Twilight 5:59 AM EST 7:06 PM EST
Moon 4:14 AM EST (1/27) 2:15 PM EST (1/27)
Length of Visible Light 10h 55m
Length of Day
9h 56m
Waning Crescent, 15% of the Moon is Illuminated
Jan 27
Waning Crescent
Jan 30
New
Feb 6
First Quarter
Feb 14
Full
Feb 22
Last Quarter

Hourly Weather History & Observations

Time (EST) Temp. Windchill Dew Point Humidity Pressure Visibility Wind Dir Wind Speed Gust Speed Precip Events Conditions
12:15 AM 28.4 °F 22.2 °F 19.4 °F 69% 29.50 in 10.0 mi SSE 5.8 mph - N/A   Mostly Cloudy
12:35 AM 30.2 °F 21.3 °F 19.4 °F 64% 29.50 in 10.0 mi South 10.4 mph - N/A   Overcast
12:55 AM 30.2 °F 22.6 °F 21.2 °F 69% 29.49 in 10.0 mi South 8.1 mph 17.3 mph N/A   Overcast
1:15 AM 30.2 °F 22.6 °F 21.2 °F 69% 29.48 in 10.0 mi South 8.1 mph - N/A   Mostly Cloudy
1:35 AM 33.8 °F 24.8 °F 21.2 °F 60% 29.47 in 10.0 mi South 12.7 mph 18.4 mph N/A   Scattered Clouds
1:55 AM 33.8 °F 25.3 °F 23.0 °F 65% 29.47 in 10.0 mi SSW 11.5 mph - N/A   Overcast
2:15 AM 33.8 °F 26.4 °F 24.8 °F 70% 29.47 in 10.0 mi SSW 9.2 mph - N/A   Overcast
2:35 AM 33.8 °F 24.8 °F 23.0 °F 65% 29.46 in 10.0 mi South 12.7 mph 18.4 mph N/A   Overcast
2:55 AM 33.8 °F 25.8 °F 23.0 °F 65% 29.45 in 10.0 mi South 10.4 mph 16.1 mph N/A   Overcast
3:15 AM 35.6 °F 27.5 °F 24.8 °F 65% 29.45 in 10.0 mi South 11.5 mph - N/A   Overcast
3:35 AM 35.6 °F 26.6 °F 24.8 °F 65% 29.45 in 10.0 mi SSW 13.8 mph 18.4 mph N/A   Overcast
3:55 AM 37.4 °F 27.5 °F 26.6 °F 65% 29.46 in 10.0 mi SW 18.4 mph 25.3 mph N/A   Overcast
4:15 AM 39.2 °F 29.6 °F 28.4 °F 65% 29.47 in 10.0 mi SW 19.6 mph 33.4 mph N/A   Overcast
4:35 AM 39.2 °F 28.7 °F 28.4 °F 65% 29.49 in 10.0 mi WSW 23.0 mph 36.8 mph N/A   Overcast
4:55 AM 30.2 °F 20.2 °F 24.8 °F 80% 29.55 in 4.0 mi West 12.7 mph 41.4 mph N/A   Overcast
5:15 AM 28.4 °F 14.1 °F 23.0 °F 80% 29.59 in 4.0 mi WSW 24.2 mph 28.8 mph N/A   Overcast
5:35 AM 28.4 °F 16.6 °F 21.2 °F 74% 29.60 in 3.0 mi West 16.1 mph 29.9 mph N/A   Overcast
5:55 AM 26.6 °F 15.7 °F 21.2 °F 80% 29.61 in 7.0 mi WSW 12.7 mph 21.9 mph N/A   Overcast
6:15 AM 26.6 °F 13.4 °F 21.2 °F 80% 29.64 in 2.5 mi WSW 18.4 mph 31.1 mph N/A   Overcast
6:35 AM 23.0 °F 8.3 °F 17.6 °F 80% 29.67 in 0.5 mi WSW 19.6 mph 39.1 mph N/A   Overcast
6:55 AM 21.2 °F 11.7 °F 17.6 °F 86% 29.72 in 0.2 mi West 8.1 mph 23.0 mph N/A   Overcast
7:15 AM 19.4 °F 6.0 °F 14.0 °F 80% 29.75 in 0.8 mi West 13.8 mph 24.2 mph N/A   Overcast
7:35 AM 17.6 °F 3.7 °F 12.2 °F 79% 29.77 in 3.0 mi West 13.8 mph 24.2 mph N/A   Overcast
7:55 AM 17.6 °F 1.7 °F 8.6 °F 68% 29.80 in 2.0 mi West 18.4 mph 26.5 mph N/A   Overcast
8:15 AM 15.8 °F -1.1 °F 8.6 °F 73% 29.84 in 0.5 mi WNW 19.6 mph 29.9 mph N/A   Overcast
8:35 AM 14.0 °F 1.2 °F 6.8 °F 73% 29.86 in 2.0 mi West 10.4 mph 25.3 mph N/A   Overcast
8:55 AM 14.0 °F -1.4 °F 1.4 °F 57% 29.88 in 3.0 mi West 15.0 mph 25.3 mph N/A   Mostly Cloudy
9:15 AM 12.2 °F -2.5 °F -0.4 °F 57% 29.90 in 10.0 mi West 12.7 mph 19.6 mph N/A   Scattered Clouds
9:35 AM 14.0 °F 1.2 °F -0.4 °F 53% 29.91 in 10.0 mi West 10.4 mph 25.3 mph N/A   Partly Cloudy
9:55 AM 14.0 °F -0.2 °F -0.4 °F 53% 29.93 in 9.0 mi WNW 12.7 mph 24.2 mph N/A   Scattered Clouds
10:15 AM 14.0 °F 0.5 °F -0.4 °F 53% 29.95 in 10.0 mi West 11.5 mph 19.6 mph N/A   Scattered Clouds
10:35 AM 14.0 °F 0.5 °F -2.2 °F 49% 29.96 in 7.0 mi West 11.5 mph 25.3 mph N/A   Scattered Clouds
10:55 AM 12.2 °F -2.5 °F -4.0 °F 48% 29.97 in 9.0 mi West 12.7 mph 21.9 mph N/A   Clear
11:15 AM 12.2 °F 0.7 °F -2.2 °F 53% 29.98 in 8.0 mi West 8.1 mph 20.7 mph N/A   Clear
11:35 AM 15.8 °F 3.4 °F -0.4 °F 49% 29.98 in 10.0 mi WNW 10.4 mph 17.3 mph N/A   Partly Cloudy
11:55 AM 15.8 °F 2.7 °F -0.4 °F 49% 29.98 in 10.0 mi WSW 11.5 mph 20.7 mph N/A   Mostly Cloudy
12:15 PM 14.0 °F 0.5 °F 1.4 °F 57% 29.99 in 1.8 mi WSW 11.5 mph 21.9 mph N/A   Overcast
12:35 PM 14.0 °F 2.9 °F 6.8 °F 73% 29.98 in 4.0 mi West 8.1 mph 16.1 mph N/A   Mostly Cloudy
12:55 PM 14.0 °F 3.9 °F 3.2 °F 62% 29.98 in 5.0 mi WNW 6.9 mph 17.3 mph N/A   Mostly Cloudy
1:15 PM 14.0 °F 1.2 °F 1.4 °F 57% 29.98 in 9.0 mi WSW 10.4 mph 16.1 mph N/A   Mostly Cloudy
1:35 PM 12.2 °F -1.8 °F 1.4 °F 62% 29.98 in 3.0 mi WSW 11.5 mph - N/A   Mostly Cloudy
1:55 PM 12.2 °F -1.8 °F -2.2 °F 53% 29.98 in 9.0 mi West 11.5 mph 20.7 mph N/A   Mostly Cloudy
2:15 PM 12.2 °F -0.2 °F 1.4 °F 62% 29.98 in 3.0 mi West 9.2 mph 20.7 mph N/A   Overcast
2:35 PM 14.0 °F 0.5 °F 1.4 °F 57% 29.98 in 10.0 mi West 11.5 mph 18.4 mph N/A   Overcast
2:55 PM 14.0 °F 1.2 °F -0.4 °F 53% 29.99 in 10.0 mi WSW 10.4 mph 19.6 mph N/A   Mostly Cloudy
3:15 PM 12.2 °F -1.8 °F -2.2 °F 53% 30.00 in 10.0 mi WSW 11.5 mph 18.4 mph N/A   Scattered Clouds
3:35 PM 12.2 °F -2.5 °F -2.2 °F 53% 30.00 in 4.0 mi WSW 12.7 mph 20.7 mph N/A   Partly Cloudy
3:55 PM 12.2 °F 0.7 °F -4.0 °F 48% 30.01 in 10.0 mi West 8.1 mph 19.6 mph N/A   Partly Cloudy
4:15 PM 12.2 °F -1.0 °F -4.0 °F 48% 30.02 in 10.0 mi WSW 10.4 mph - N/A   Mostly Cloudy
4:35 PM 12.2 °F -2.5 °F -4.0 °F 48% 30.02 in 10.0 mi WSW 12.7 mph 23.0 mph N/A   Mostly Cloudy
4:55 PM 12.2 °F -3.7 °F -4.0 °F 48% 30.04 in 7.0 mi WSW 15.0 mph 25.3 mph N/A   Mostly Cloudy
5:15 PM 10.4 °F -5.4 °F -5.8 °F 48% 30.04 in 10.0 mi WSW 13.8 mph 23.0 mph N/A   Scattered Clouds
5:35 PM 10.4 °F -3.3 °F -2.2 °F 57% 30.05 in 10.0 mi WSW 10.4 mph - N/A   Scattered Clouds
5:55 PM 8.6 °F -5.5 °F -2.2 °F 62% 30.05 in 10.0 mi West 10.4 mph 16.1 mph N/A   Scattered Clouds
6:15 PM 8.6 °F -2.6 °F -5.8 °F 52% 30.06 in 10.0 mi WSW 6.9 mph 18.4 mph N/A   Partly Cloudy
6:35 PM 8.6 °F -6.3 °F -5.8 °F 52% 30.08 in 10.0 mi West 11.5 mph 18.4 mph N/A   Clear
6:55 PM 8.6 °F -2.6 °F -5.8 °F 52% 30.09 in 10.0 mi West 6.9 mph - N/A   Partly Cloudy
7:15 PM 6.8 °F -6.9 °F -5.8 °F 56% 30.10 in 10.0 mi West 9.2 mph - N/A   Partly Cloudy
7:35 PM 6.8 °F -6.9 °F -2.2 °F 67% 30.10 in 10.0 mi West 9.2 mph 17.3 mph N/A   Clear
7:55 PM 6.8 °F -8.6 °F -4.0 °F 61% 30.12 in 10.0 mi West 11.5 mph 18.4 mph N/A   Clear
8:15 PM 6.8 °F -7.8 °F -5.8 °F 56% 30.13 in 10.0 mi WSW 10.4 mph 18.4 mph N/A   Clear
8:35 PM 6.8 °F -7.8 °F -7.6 °F 52% 30.13 in 10.0 mi WSW 10.4 mph 16.1 mph N/A   Clear
8:55 PM 5.0 °F -9.1 °F -7.6 °F 56% 30.14 in 10.0 mi WSW 9.2 mph 16.1 mph N/A   Clear
9:15 PM 5.0 °F -11.6 °F -7.6 °F 56% 30.15 in 10.0 mi West 12.7 mph 18.4 mph N/A   Scattered Clouds
9:35 PM 3.2 °F -14.6 °F -7.6 °F 61% 30.16 in 10.0 mi WSW 13.8 mph 20.7 mph N/A   Partly Cloudy
9:55 PM 3.2 °F -13.9 °F -7.6 °F 61% 30.17 in 10.0 mi WSW 12.7 mph 18.4 mph N/A   Clear
10:15 PM 3.2 °F -11.3 °F -9.4 °F 56% 30.18 in 10.0 mi West 9.2 mph 19.6 mph N/A   Clear
10:35 PM 1.4 °F -14.5 °F -7.6 °F 66% 30.20 in 10.0 mi West 10.4 mph 16.1 mph N/A   Partly Cloudy
10:55 PM 1.4 °F -9.9 °F -9.4 °F 61% 30.20 in 10.0 mi West 5.8 mph 16.1 mph N/A   Clear
11:15 PM 1.4 °F -17.6 °F -9.4 °F 61% 30.22 in 10.0 mi WSW 15.0 mph 20.7 mph N/A   Clear
11:35 PM -0.4 °F -16.7 °F -11.2 °F 60% 30.23 in 10.0 mi WSW 10.4 mph 18.4 mph N/A   Clear
11:55 PM -0.4 °F -18.4 °F -11.2 °F 60% 30.23 in 10.0 mi WSW 12.7 mph 19.6 mph N/A   Clear